TimeCDT,TemperatureF,Dew PointF,Humidity,Sea Level PressureIn,VisibilityMPH,Wind Direction,Wind SpeedMPH,Gust SpeedMPH,PrecipitationIn,Events,Conditions,WindDirDegrees,DateUTC
12:15 AM,48.9,40.1,72,30.17,10.0,SE,3.5,-,N/A,,Clear,130,2013-10-09 05:15:00
12:35 AM,48.2,40.1,74,30.17,10.0,SE,4.6,-,N/A,,Clear,130,2013-10-09 05:35:00
12:55 AM,47.5,39.4,73,30.17,7.0,ESE,4.6,-,N/A,,Clear,120,2013-10-09 05:55:00
1:15 AM,47.3,39.2,73,30.17,10.0,ESE,4.6,-,N/A,,Clear,120,2013-10-09 06:15:00
1:35 AM,45.9,37.9,74,30.18,7.0,Calm,Calm,-,N/A,,Clear,0,2013-10-09 06:35:00
1:55 AM,45.7,38.3,75,30.17,10.0,Calm,Calm,-,N/A,,Clear,0,2013-10-09 06:55:00
2:15 AM,44.4,36.5,74,30.17,10.0,East,3.5,-,N/A,,Clear,80,2013-10-09 07:15:00
2:35 AM,43.2,35.8,75,30.17,10.0,ENE,3.5,-,N/A,,Clear,70,2013-10-09 07:35:00
2:55 AM,41.9,34.7,76,30.16,10.0,ENE,4.6,-,N/A,,Clear,70,2013-10-09 07:55:00
3:15 AM,42.3,36.0,78,30.16,10.0,East,4.6,-,N/A,,Clear,80,2013-10-09 08:15:00
3:35 AM,42.3,36.1,79,30.16,10.0,East,5.8,-,N/A,,Clear,100,2013-10-09 08:35:00
3:55 AM,41.9,35.8,79,30.16,10.0,East,5.8,-,N/A,,Clear,100,2013-10-09 08:55:00
4:15 AM,42.8,37.0,80,30.17,10.0,East,4.6,-,N/A,,Clear,90,2013-10-09 09:15:00
4:35 AM,43.3,37.6,80,30.17,10.0,ENE,3.5,-,N/A,,Clear,70,2013-10-09 09:35:00
4:55 AM,42.6,36.7,79,30.18,10.0,ENE,3.5,-,N/A,,Clear,60,2013-10-09 09:55:00
5:15 AM,41.9,36.0,79,30.18,10.0,East,3.5,-,N/A,,Clear,80,2013-10-09 10:15:00
5:35 AM,40.5,35.4,82,30.19,10.0,Calm,Calm,-,N/A,,Clear,0,2013-10-09 10:35:00
5:55 AM,41.2,35.8,81,30.19,10.0,ENE,3.5,-,N/A,,Clear,70,2013-10-09 10:55:00
6:15 AM,41.0,35.6,81,30.20,10.0,Calm,Calm,-,N/A,,Clear,0,2013-10-09 11:15:00
6:35 AM,41.0,35.8,82,30.20,10.0,NE,3.5,-,N/A,,Clear,40,2013-10-09 11:35:00
6:55 AM,40.3,35.6,83,30.20,10.0,Calm,Calm,-,N/A,,Clear,0,2013-10-09 11:55:00
7:15 AM,41.2,36.3,83,30.20,10.0,ENE,4.6,-,N/A,,Clear,60,2013-10-09 12:15:00
7:35 AM,43.5,38.5,82,30.20,10.0,NE,3.5,-,N/A,,Clear,50,2013-10-09 12:35:00
7:55 AM,45.9,41.4,84,30.21,10.0,ENE,3.5,-,N/A,,Clear,60,2013-10-09 12:55:00
8:15 AM,47.7,42.8,83,30.21,10.0,ENE,5.8,-,N/A,,Clear,70,2013-10-09 13:15:00
8:35 AM,49.8,45.3,84,30.21,10.0,East,4.6,-,N/A,,Clear,80,2013-10-09 13:35:00
8:55 AM,52.9,48.4,85,30.21,10.0,East,3.5,-,N/A,,Clear,90,2013-10-09 13:55:00
9:15 AM,55.9,51.1,84,30.21,10.0,East,3.5,-,N/A,,Clear,90,2013-10-09 14:15:00
9:35 AM,59.0,54.1,84,30.21,10.0,East,4.6,-,N/A,,Clear,100,2013-10-09 14:35:00
9:55 AM,61.0,54.9,80,30.21,10.0,Calm,Calm,-,N/A,,Clear,0,2013-10-09 14:55:00
10:15 AM,62.8,55.0,76,30.21,10.0,SE,3.5,-,N/A,,Clear,140,2013-10-09 15:15:00
10:35 AM,64.6,56.8,76,30.20,10.0,ESE,4.6,-,N/A,,Clear,110,2013-10-09 15:35:00
10:55 AM,66.6,55.8,68,30.20,10.0,East,4.6,-,N/A,,Clear,100,2013-10-09 15:55:00
11:15 AM,68.9,54.5,60,30.20,7.0,NE,4.6,-,N/A,,Clear,40,2013-10-09 16:15:00
11:35 AM,69.8,52.3,54,30.20,10.0,NE,5.8,-,N/A,,Clear,50,2013-10-09 16:35:00
11:55 AM,70.0,46.0,42,30.19,10.0,SE,4.6,-,N/A,,Clear,140,2013-10-09 16:55:00
12:15 PM,70.7,45.5,40,30.19,7.0,ENE,6.9,-,N/A,,Clear,60,2013-10-09 17:15:00
12:35 PM,71.8,46.2,40,30.18,7.0,East,8.1,-,N/A,,Clear,100,2013-10-09 17:35:00
12:55 PM,72.5,45.9,39,30.17,7.0,East,8.1,-,N/A,,Clear,90,2013-10-09 17:55:00
1:15 PM,72.9,45.1,37,30.16,7.0,East,4.6,-,N/A,,Clear,80,2013-10-09 18:15:00
1:35 PM,73.9,45.5,36,30.15,7.0,East,8.1,-,N/A,,Clear,100,2013-10-09 18:35:00
1:55 PM,74.7,44.8,34,30.15,7.0,East,5.8,-,N/A,,Clear,90,2013-10-09 18:55:00
2:15 PM,74.5,43.5,33,30.14,10.0,East,6.9,-,N/A,,Clear,80,2013-10-09 19:15:00
2:35 PM,75.2,43.7,32,30.14,10.0,SE,5.8,-,N/A,,Clear,140,2013-10-09 19:35:00
2:55 PM,75.2,43.9,33,30.13,10.0,ESE,3.5,-,N/A,,Clear,120,2013-10-09 19:55:00
3:15 PM,75.4,44.1,33,30.13,10.0,East,5.8,-,N/A,,Clear,100,2013-10-09 20:15:00
3:55 PM,75.4,44.4,33,30.12,10.0,East,4.6,-,N/A,,Clear,90,2013-10-09 20:55:00
4:15 PM,75.4,43.5,32,30.12,7.0,SSE,5.8,-,N/A,,Clear,150,2013-10-09 21:15:00
4:35 PM,75.2,44.2,33,30.12,7.0,SE,5.8,-,N/A,,Clear,140,2013-10-09 21:35:00
4:55 PM,75.2,43.7,32,30.12,7.0,ESE,3.5,-,N/A,,Clear,120,2013-10-09 21:55:00
5:15 PM,73.8,42.8,33,30.12,10.0,SE,4.6,-,N/A,,Clear,130,2013-10-09 22:15:00
5:35 PM,72.5,42.3,34,30.12,7.0,SE,4.6,-,N/A,,Clear,130,2013-10-09 22:35:00
5:55 PM,70.9,41.9,35,30.12,7.0,SE,3.5,-,N/A,,Clear,140,2013-10-09 22:55:00
6:15 PM,67.6,39.7,36,30.12,7.0,SSE,3.5,-,N/A,,Clear,150,2013-10-09 23:15:00
6:55 PM,59.0,38.8,47,30.12,10.0,Calm,Calm,-,N/A,,Clear,0,2013-10-09 23:55:00
7:15 PM,57.2,35.4,44,30.12,10.0,Calm,Calm,-,N/A,,Clear,0,2013-10-10 00:15:00
7:35 PM,54.5,33.3,45,30.13,10.0,Calm,Calm,-,N/A,,Clear,0,2013-10-10 00:35:00
7:55 PM,54.0,30.2,40,30.13,10.0,Calm,Calm,-,N/A,,Clear,0,2013-10-10 00:55:00
8:15 PM,53.1,35.8,52,30.13,10.0,Calm,Calm,-,N/A,,Clear,0,2013-10-10 01:15:00
8:35 PM,52.2,30.0,43,30.13,10.0,ESE,4.6,-,N/A,,Clear,110,2013-10-10 01:35:00
8:55 PM,51.1,25.7,37,30.13,10.0,ESE,4.6,-,N/A,,Clear,110,2013-10-10 01:55:00
9:15 PM,49.5,32.5,52,30.13,7.0,Calm,Calm,-,N/A,,Clear,0,2013-10-10 02:15:00
9:35 PM,51.1,39.9,66,30.13,7.0,Calm,Calm,-,N/A,,Clear,0,2013-10-10 02:35:00
9:55 PM,51.3,38.7,62,30.13,10.0,Calm,Calm,-,N/A,,Clear,0,2013-10-10 02:55:00
10:15 PM,49.6,34.0,55,30.14,10.0,Calm,Calm,-,N/A,,Clear,0,2013-10-10 03:15:00
10:35 PM,48.6,37.6,66,30.13,10.0,Calm,Calm,-,N/A,,Clear,0,2013-10-10 03:35:00
10:55 PM,48.9,41.0,74,30.13,10.0,Calm,Calm,-,N/A,,Clear,0,2013-10-10 03:55:00
11:15 PM,47.3,39.2,73,30.13,10.0,Calm,Calm,-,N/A,,Clear,0,2013-10-10 04:15:00
11:55 PM,46.4,34.2,62,30.13,10.0,Calm,Calm,-,N/A,,Clear,0,2013-10-10 04:55:00